Voltar ao catálogo

SCOUT G-1 DEB

LostPO
NORAD 29210·DEBRIS·🇺🇸 United States

Lançado Sep 16, 1987 de Vandenberg Space Force Base

Loading…

Próximas Passagens (próximas 24 horas)

TLE

ObsoletoSource: Space-Track

Época: Jun 10, 2006, 08:21 UTC

1 29210U 87080N   06161.34810646  .00000397  00000-0  41911-3 0  9991
2 29210  90.2391 197.6392 0141328 128.6900 232.7621 13.68756194158380

Acompanhe SCOUT G-1 DEB em tempo real com AllMySat

Download on the App Store